[[{"header":{"parameterUnit":"m.s-1","parameterCategory":1,"la1":30.2991,"la2":30.254,"lo1":-89.0895,"lo2":-89.0444,"dy":0.0017,"dx":0.0017,"nx":28,"ny":28,"refTime":"2024-12-04T03:00:00:Z","depth":0,"parameterNumber":2,"parameterNumberName":"U-component_of_WINDS"},"data":[0,0,0,0,0,0,0,0,0,0,0,0,0,0,0,0,0,0,0,0,0,0,0,0,0,0,0,0,0,0,0,0,0,0,0,0,0,0,0,0,0,0,0,0,0,0,0,0,0,0,0,0,0,0,0,0,0,0,-4.3004,-4.3005,0,-4.3069,-4.3069,-4.307,-4.2953,-4.2949,-4.2945,-4.2942,-4.3008,-4.3013,-4.3018,0,0,0,0,0,0,0,0,0,0,0,0,0,-4.2779,-4.2784,-4.3004,-4.3005,-4.3006,-4.3068,-4.3069,-4.307,-4.2954,-4.2949,-4.2944,-4.294,-4.3006,-4.3012,-4.3019,0,0,0,0,0,0,0,0,0,0,0,0,0,-4.2863,-4.2785,-4.3004,-4.2955,-4.2951,-4.3068,-4.3069,-4.307,-4.2955,-4.2949,-4.2943,-4.2938,-4.3004,-4.3012,-4.302,-4.3187,0,0,-4.3044,-4.3048,0,0,0,0,0,0,0,0,-4.2859,-4.2872,-4.2961,-4.2959,-4.2955,-4.2997,-4.3014,-4.311,-4.2956,-4.2954,-4.2941,-4.2935,-4.3009,-4.3016,-4.3041,-4.319,-4.3193,-4.3045,-4.305,-4.3053,-4.3056,0,0,0,0,0,0,0,-4.2853,-4.2868,-4.3029,-4.2963,-4.2959,-4.293,-4.2935,-4.3032,-4.3013,-4.2953,-4.2945,-4.2954,-4.3006,-4.3033,-4.3042,-4.3194,-4.3045,-4.3052,-4.3057,-4.306,-4.3481,-4.3487,0,0,0,0,0,0,-4.2853,-4.2864,-4.3027,-4.3031,-4.2891,-4.2938,-4.2945,-4.2989,-4.3012,-4.301,-4.2959,-4.2949,-4.3023,-4.3032,-4.3044,-4.3239,-4.3053,-4.3061,-4.3066,-4.3475,-4.3483,-4.349,0,0,0,0,0,0,-4.2849,-4.2869,-4.3025,-4.2946,-4.2963,-4.2949,-4.3,-4.2994,-4.3021,-4.3016,-4.3012,-4.2991,-4.3018,-4.3032,-4.3152,-4.324,-4.3065,-4.3072,-4.3468,-4.3477,-4.3486,-4.3633,0,0,0,0,0,0,-4.2843,-4.2868,-4.2932,-4.2948,-4.2968,-4.3133,-4.3005,-4.2999,-4.3035,-4.3022,-4.3045,-4.3043,-4.3015,-4.314,-4.316,-4.3248,-4.3078,-4.346,-4.3472,-4.3483,-4.362,-4.3646,-4.3668,0,0,0,0,0,-4.2835,-4.2971,-4.2936,-4.2956,-4.3047,-4.3138,-4.3149,-4.3114,-4.3043,-4.3106,-4.3103,-4.3042,-4.3228,-4.3153,-4.3174,-4.3266,-4.3454,-4.3468,-4.3482,-4.3609,-4.3641,-4.3668,0,0,0,0,0,0,-4.2966,-4.2972,-4.2933,-4.3078,-4.3108,-4.3118,-4.3197,-4.3149,-4.32,-4.3185,-4.3139,-4.3145,-4.3274,-4.3282,-4.32,-4.3428,-4.3329,-4.3348,-4.3418,-4.3448,-4.3472,-4.3466,-4.3085,0,0,0,0,0,-4.3011,-4.3084,-4.3086,-4.3214,-4.3231,-4.3212,-4.325,-4.322,-4.3249,-4.3262,-4.3267,-4.3298,-4.3362,-4.3406,-4.3466,-4.3621,-4.3623,-4.3695,-4.3719,-4.3739,-4.3755,-4.3836,-4.3867,-4.3536,-4.3536,-4.3536,0,0,-4.3106,-4.3119,-4.3168,-4.324,-4.326,-4.3336,-4.3223,-4.3309,-4.3365,-4.3275,-4.3387,-4.3393,-4.3424,-4.3562,-4.3623,-4.3572,-4.3847,-4.3757,-4.3773,-4.3778,-4.3854,-4.3885,-4.3913,-4.3546,-4.3544,-4.3543,0,0,-4.3317,-4.3335,-4.3442,-4.3464,-4.3496,-4.3482,-4.3508,-4.3525,-4.3525,-4.3638,-4.3571,-4.3637,-4.375,-4.3774,-4.3802,-4.4022,-4.3967,-4.4043,-4.4169,-4.4248,-4.4274,-4.4297,-4.4373,-4.4402,-4.406,-4.406,-4.4061,0,-4.343,-4.3542,-4.3503,-4.3593,-4.3626,-4.3549,-4.3656,-4.368,-4.373,-4.3754,-4.3697,-4.3837,-4.3853,-4.3994,-4.4048,-4.4073,-4.41,-4.4039,-4.4274,-4.4296,-4.4317,-4.4389,-4.4418,-4.4069,-4.4068,-4.4067,-4.4066,0,-4.3679,-4.3758,-4.3841,-4.389,-4.3933,-4.4032,-4.4007,-4.4055,-4.4022,-4.4014,-4.4129,-4.4145,-4.4206,-4.4238,-4.4207,-4.4375,-4.4342,-4.4281,-4.4179,-4.4358,-4.4425,-4.4452,-4.4082,-4.4078,-4.4076,-4.4074,0,0,-4.3972,-4.3999,-4.4029,-4.405,-4.4079,-4.4139,-4.4234,-4.4293,-4.4334,-4.4372,-4.4449,-4.4547,-4.449,-4.4521,-4.4492,-4.4562,-4.4733,-4.4491,-4.4491,-4.4534,-4.4917,-4.4961,-4.4994,-4.4698,-4.4703,-4.4707,-4.4913,0,-4.418,-4.4342,-4.431,-4.4469,-4.454,-4.4468,-4.455,-4.4577,-4.4572,-4.4632,-4.4627,-4.4696,-4.4617,-4.4635,-4.4701,-4.4698,-4.4809,-4.4683,-4.4768,-4.4771,-4.4759,-4.5029,-4.5076,-4.527,-4.494,-4.4944,-4.4947,0,-4.4443,-4.4489,-4.4655,-4.4672,-4.47,-4.4775,-4.4826,-4.4885,-4.4913,-4.4905,-4.494,-4.4898,-4.4991,-4.4891,-4.5018,-4.4933,-4.4966,-4.497,-4.4977,-4.4981,-4.4868,-4.5038,-4.5331,-4.5359,-4.4989,-4.4985,-4.4982,0,-4.4636,-4.4741,-4.4853,-4.4873,-4.4896,-4.495,-4.4962,-4.4985,-4.5022,-4.5067,-4.5091,-4.5147,-4.5177,-4.5221,-4.5194,-4.5124,-4.5325,-4.5223,-4.532,-4.5321,-4.5363,-4.536,-4.5663,-4.539,-4.5389,-4.5389,-4.5388,0,-4.487,-4.4974,-4.494,-4.5009,-4.5123,-4.5085,-4.5198,-4.5202,-4.5223,-4.5291,-4.5233,-4.5298,-4.526,-4.5322,-4.5302,-4.5409,-4.5424,-4.5419,-4.5412,-4.5423,-4.5423,-4.5442,-4.5426,-4.5396,-4.5395,-4.5393,-4.5392,0,-4.5104,-4.5086,-4.5203,-4.5216,-4.5221,-4.5304,-4.5314,-4.5378,-4.537,-4.5456,-4.5474,-4.5461,-4.5531,-4.5509,-4.5585,-4.5572,-4.5707,-4.5684,-4.5697,-4.569,-4.5787,-4.5777,-4.611,-4.6151,-4.5854,-4.5857,-4.5859,0,-4.5253,-4.5331,-4.5351,-4.5392,-4.5408,-4.5476,-4.5513,-4.5479,-4.5521,-4.5559,-4.5618,-4.5683,-4.5732,-4.5847,-4.5844,-4.5901,-4.5878,-4.599,-4.5886,-4.5894,-4.5876,-4.5871,-4.5877,-4.601,-4.6014,-4.6016,-4.6019,0,-4.5518,-4.5505,-4.5561,-4.5615,-4.5661,-4.5702,-4.5737,-4.5774,-4.5742,-4.5792,-4.5862,-4.5901,-4.5977,-4.6042,-4.6094,-4.6105,-4.6057,-4.6052,-4.6077,-4.6087,-4.609,-4.6087,-4.5751,-4.6044,-4.6041,-4.604,-4.6038,-4.6037,-4.5712,-4.5777,-4.5801,-4.5865,-4.5888,-4.5923,-4.5982,-4.5982,-4.604,-4.6099,-4.6076,-4.6156,-4.6182,-4.6247,-4.6266,-4.6328,-4.6285,-4.6322,-4.633,-4.6339,-4.635,-4.6083,-4.6338,-4.6337,-4.6337,-4.6336,-4.6335,0,-4.5971,-4.5983,-4.6043,-4.6093,-4.6144,-4.6095,-4.6131,-4.6176,-4.6248,-4.6276,-4.6326,-4.6407,-4.6469,-4.6471,-4.6529,-4.6578,-4.6557,-4.6595,-4.6589,-4.6592,-4.6387,-4.6358,-4.661,-4.661,-4.661,-4.661,-4.661,-4.661,-4.6111,-4.6218,-4.6209,-4.6326,-4.6337,-4.6415,-4.644,-4.6471,-4.6493,-4.6585,-4.6637,-4.6638,-4.6656,-4.6714,-4.6769,-4.6768,-4.6791,-4.6836,-4.6827,-4.6634,-4.6607,-4.6581,-4.6553,-4.6842,-4.6842,-4.7026,-4.7028,-4.7029]},{"header":{"parameterUnit":"m.s-1","parameterCategory":1,"la1":30.2991,"la2":30.254,"lo1":-89.0895,"lo2":-89.0444,"dy":0.0017,"dx":0.0017,"nx":28,"ny":28,"refTime":"2024-12-04T03:00:00:Z","depth":0,"parameterNumber":3,"parameterNumberName":"V-component_of_WINDS"},"data":[0,0,0,0,0,0,0,0,0,0,0,0,0,0,0,0,0,0,0,0,0,0,0,0,0,0,0,0,0,0,0,0,0,0,0,0,0,0,0,0,0,0,0,0,0,0,0,0,0,0,0,0,0,0,0,0,0,0,-0.6349,-0.6349,0,-0.6354,-0.6355,-0.6355,-0.6375,-0.6376,-0.6376,-0.6377,-0.6382,-0.6381,-0.6381,0,0,0,0,0,0,0,0,0,0,0,0,0,-0.6355,-0.6355,-0.6349,-0.6349,-0.6349,-0.6354,-0.6355,-0.6355,-0.6375,-0.6376,-0.6376,-0.6377,-0.6382,-0.6381,-0.6381,0,0,0,0,0,0,0,0,0,0,0,0,0,-0.6355,-0.6355,-0.6349,-0.636,-0.6361,-0.6354,-0.6355,-0.6355,-0.6375,-0.6376,-0.6376,-0.6377,-0.6382,-0.6381,-0.6381,-0.6364,0,0,-0.6379,-0.6379,0,0,0,0,0,0,0,0,-0.6355,-0.6355,-0.6358,-0.6359,-0.636,-0.6365,-0.6358,-0.6358,-0.6375,-0.637,-0.6377,-0.6377,-0.6375,-0.6375,-0.6375,-0.6364,-0.6364,-0.6379,-0.6379,-0.6379,-0.6379,0,0,0,0,0,0,0,-0.6355,-0.6355,-0.6351,-0.6358,-0.636,-0.6364,-0.6365,-0.6358,-0.6368,-0.637,-0.6372,-0.6372,-0.6376,-0.6375,-0.6375,-0.6364,-0.6379,-0.6379,-0.6379,-0.6379,-0.6338,-0.6337,0,0,0,0,0,0,-0.6354,-0.6355,-0.6351,-0.6351,-0.636,-0.6363,-0.6364,-0.6363,-0.6369,-0.637,-0.6371,-0.6373,-0.6376,-0.6376,-0.6375,-0.6355,-0.6379,-0.6378,-0.6378,-0.6339,-0.6338,-0.6337,0,0,0,0,0,0,-0.6354,-0.6353,-0.6351,-0.6354,-0.6354,-0.6363,-0.636,-0.6362,-0.6362,-0.637,-0.6371,-0.6369,-0.6376,-0.6376,-0.6366,-0.6355,-0.6378,-0.6378,-0.634,-0.6339,-0.6337,-0.6314,0,0,0,0,0,0,-0.6354,-0.6353,-0.6347,-0.6353,-0.6353,-0.6342,-0.636,-0.6362,-0.6361,-0.6363,-0.6368,-0.6369,-0.6377,-0.6367,-0.6366,-0.6355,-0.6377,-0.6341,-0.6339,-0.6338,-0.6316,-0.6312,-0.6309,0,0,0,0,0,-0.6354,-0.6341,-0.6347,-0.6346,-0.6346,-0.6341,-0.6341,-0.6351,-0.636,-0.6354,-0.6358,-0.6369,-0.6357,-0.6366,-0.6365,-0.6354,-0.6342,-0.634,-0.6338,-0.6318,-0.6313,-0.6309,0,0,0,0,0,0,-0.6334,-0.6342,-0.6349,-0.6337,-0.6338,-0.6345,-0.6337,-0.6346,-0.6344,-0.6346,-0.6358,-0.6359,-0.6347,-0.6349,-0.6359,-0.6337,-0.6351,-0.6349,-0.6336,-0.6332,-0.6328,-0.6328,-0.6377,0,0,0,0,0,-0.6328,-0.6323,-0.6331,-0.632,-0.632,-0.6328,-0.6327,-0.6333,-0.6335,-0.6336,-0.634,-0.6341,-0.6337,-0.6335,-0.6332,-0.6316,-0.6317,-0.6308,-0.6305,-0.6302,-0.63,-0.6291,-0.6287,-0.6331,-0.6331,-0.6331,0,0,-0.6316,-0.6319,-0.6316,-0.6315,-0.6317,-0.6312,-0.6329,-0.6323,-0.6318,-0.6335,-0.6326,-0.6328,-0.633,-0.6317,-0.6312,-0.6319,-0.6288,-0.63,-0.6298,-0.6297,-0.6289,-0.6285,-0.6281,-0.633,-0.633,-0.633,0,0,-0.629,-0.6293,-0.6284,-0.6285,-0.6287,-0.6293,-0.629,-0.6295,-0.6298,-0.6289,-0.63,-0.6295,-0.6289,-0.6289,-0.6289,-0.6262,-0.6271,-0.6261,-0.6243,-0.6234,-0.6231,-0.6228,-0.6217,-0.6214,-0.6259,-0.6259,-0.6259,0,-0.6275,-0.6268,-0.6278,-0.6271,-0.6269,-0.6284,-0.6273,-0.6274,-0.6275,-0.6274,-0.6282,-0.6273,-0.6276,-0.6262,-0.6256,-0.6255,-0.6252,-0.626,-0.623,-0.6228,-0.6225,-0.6215,-0.6211,-0.6257,-0.6257,-0.6258,-0.6258,0,-0.6248,-0.6243,-0.6234,-0.6235,-0.6233,-0.6224,-0.6232,-0.6229,-0.6236,-0.624,-0.623,-0.6233,-0.623,-0.6227,-0.6234,-0.6215,-0.6219,-0.6229,-0.6243,-0.6219,-0.621,-0.6207,-0.6255,-0.6256,-0.6256,-0.6257,0,0,-0.6211,-0.6216,-0.6213,-0.6213,-0.6216,-0.6211,-0.6203,-0.62,-0.6196,-0.6196,-0.6189,-0.6182,-0.6191,-0.619,-0.6197,-0.6189,-0.6166,-0.6199,-0.62,-0.6193,-0.6144,-0.6136,-0.6132,-0.6172,-0.6172,-0.6171,-0.6144,0,-0.6186,-0.6172,-0.618,-0.6165,-0.616,-0.6172,-0.6165,-0.6165,-0.6169,-0.6164,-0.6168,-0.6163,-0.6175,-0.6174,-0.6167,-0.6171,-0.6157,-0.6173,-0.6165,-0.6165,-0.6164,-0.6128,-0.612,-0.6094,-0.614,-0.614,-0.6139,0,-0.6156,-0.6154,-0.6138,-0.6141,-0.6139,-0.6132,-0.6129,-0.6125,-0.6125,-0.6128,-0.6127,-0.6135,-0.6126,-0.614,-0.6127,-0.6138,-0.6135,-0.6136,-0.6135,-0.6135,-0.615,-0.6125,-0.6086,-0.6082,-0.6134,-0.6134,-0.6135,0,-0.613,-0.6123,-0.6112,-0.6112,-0.6115,-0.611,-0.6111,-0.6112,-0.6109,-0.6107,-0.6105,-0.6102,-0.61,-0.6096,-0.6103,-0.6113,-0.6089,-0.6104,-0.6091,-0.609,-0.6085,-0.6085,-0.6044,-0.6084,-0.6084,-0.6084,-0.6084,0,-0.6101,-0.6091,-0.61,-0.6094,-0.6082,-0.6091,-0.6079,-0.6081,-0.6082,-0.6075,-0.6086,-0.6079,-0.6089,-0.6083,-0.6088,-0.6076,-0.6075,-0.6077,-0.6078,-0.6076,-0.6075,-0.6074,-0.6076,-0.6083,-0.6083,-0.6083,-0.6083,0,-0.607,-0.6076,-0.6065,-0.6068,-0.6069,-0.606,-0.6063,-0.6056,-0.606,-0.6052,-0.605,-0.6056,-0.605,-0.6056,-0.605,-0.6053,-0.6037,-0.6041,-0.6037,-0.6038,-0.6024,-0.6025,-0.598,-0.5974,-0.6018,-0.6018,-0.6017,0,-0.6051,-0.6043,-0.6046,-0.6042,-0.6042,-0.6036,-0.6034,-0.6042,-0.6038,-0.6037,-0.6031,-0.6025,-0.6021,-0.601,-0.6013,-0.6009,-0.6013,-0.5997,-0.6012,-0.6009,-0.6012,-0.6012,-0.6011,-0.5994,-0.5994,-0.5993,-0.5993,0,-0.6017,-0.602,-0.6016,-0.6012,-0.6008,-0.6006,-0.6004,-0.6,-0.6009,-0.6004,-0.5997,-0.5994,-0.5988,-0.5982,-0.5978,-0.5978,-0.5987,-0.5988,-0.5985,-0.5982,-0.5979,-0.598,-0.6028,-0.5989,-0.5989,-0.599,-0.599,-0.599,-0.5991,-0.5984,-0.5985,-0.5979,-0.5978,-0.5976,-0.597,-0.5973,-0.5967,-0.5963,-0.5968,-0.5959,-0.5959,-0.5954,-0.5953,-0.5947,-0.5953,-0.5949,-0.5947,-0.5946,-0.5944,-0.598,-0.5946,-0.5946,-0.5946,-0.5946,-0.5947,0,-0.5957,-0.5958,-0.5952,-0.5949,-0.5945,-0.5953,-0.5951,-0.5946,-0.5939,-0.5938,-0.5933,-0.5925,-0.5919,-0.5921,-0.5916,-0.591,-0.5913,-0.5908,-0.5909,-0.5908,-0.5938,-0.5942,-0.5905,-0.5905,-0.5905,-0.5905,-0.5905,-0.5905,-0.5939,-0.5927,-0.593,-0.5918,-0.5919,-0.591,-0.5909,-0.5906,-0.5905,-0.5895,-0.589,-0.5892,-0.5892,-0.5886,-0.5881,-0.5882,-0.5879,-0.5872,-0.5874,-0.5902,-0.5906,-0.591,-0.5913,-0.5872,-0.5872,-0.5845,-0.5844,-0.5844]}]]